Beatrice, NE

6:51 PM CST on December 09, 2019 (GMT -0600)
Beatrice Municipal

Weather History for KBIE - October, 2019

Change the Weather History Date:

Tuesday, October 22, 2019

  Actual Average Record
Temperature  
Mean Temperature 50 °F -  
Max Temperature 60 °F 67 °F 87 °F (2003)
Min Temperature 39 °F 41 °F 28 °F (1976)
Degree Days  
Heating Degree Days 16    
Moisture  
Dew Point 32 °F    
Average Humidity 56    
Maximum Humidity 74    
Minimum Humidity 34    
Precipitation  
Precipitation 0.00 in - - ()
Sea Level Pressure  
Sea Level Pressure 29.94 in    
Wind  
Wind Speed 14 mph (WNW)    
Max Wind Speed 23 mph    
Max Gust Speed 31 mph    
Visibility 10 miles    
Events      
Averages and records for this station are not official NWS values.
T = Trace of Precipitation, MM = Missing Value Source: NWS Daily Summary

Daily Weather History Graph

Daily Weather History Graph

Search for Another Location

Airport or City:

Astronomy

Oct. 22, 2019 Rise Set
Actual Time 7:45 AM CDT 6:37 PM CDT
Civil Twilight 7:17 AM CDT 7:04 PM CDT
Nautical Twilight 6:45 AM CDT 7:36 PM CDT
Astronomical Twilight 6:14 AM CDT 8:08 PM CDT
Moon 12:55 AM CDT (10/22) 3:48 PM CDT (10/22)
Length of Visible Light 11h 47m
Length of Day
10h 52m
Last Quarter, 37% of the Moon is Illuminated
Oct 22
Last Quarter
Oct 27
New
Nov 4
First Quarter
Nov 12
Full
Nov 19
Last Quarter

Hourly Weather History & Observations

Time (CDT) Temp. Windchill Dew Point Humidity Pressure Visibility Wind Dir Wind Speed Gust Speed Precip Events Conditions
12:15 AM 45.7 °F 39.1 °F 32.2 °F 59% 29.86 in 10.0 mi WNW 15.0 mph 19.6 mph N/A   Clear
12:35 AM 45.9 °F 39.7 °F 32.0 °F 58% 29.86 in 10.0 mi WNW 13.8 mph 23.0 mph N/A   Clear
12:55 AM 45.5 °F 38.6 °F 31.6 °F 58% 29.87 in 10.0 mi WNW 16.1 mph 20.7 mph N/A   Clear
1:15 AM 45.0 °F 37.6 °F 31.8 °F 60% 29.87 in 10.0 mi WNW 17.3 mph 21.9 mph N/A   Clear
1:35 AM 44.8 °F 37.4 °F 32.0 °F 61% 29.88 in 10.0 mi WNW 17.3 mph 23.0 mph N/A   Clear
1:55 AM 44.6 °F 37.4 °F 31.8 °F 61% 29.88 in 10.0 mi WNW 16.1 mph 19.6 mph N/A   Clear
2:15 AM 44.6 °F 36.9 °F 32.0 °F 61% 29.89 in 10.0 mi WNW 18.4 mph 21.9 mph N/A   Clear
2:35 AM 44.4 °F 37.2 °F 32.0 °F 62% 29.89 in 10.0 mi WNW 16.1 mph 23.0 mph N/A   Clear
2:55 AM 42.3 °F 35.5 °F 32.0 °F 67% 29.89 in 10.0 mi West 12.7 mph - N/A   Clear
3:15 AM 41.5 °F 34.2 °F 32.0 °F 69% 29.90 in 10.0 mi West 13.8 mph - N/A   Clear
3:35 AM 42.1 °F 35.2 °F 31.8 °F 67% 29.90 in 10.0 mi West 12.7 mph - N/A   Clear
3:55 AM 41.5 °F 33.8 °F 32.0 °F 69% 29.90 in 10.0 mi West 15.0 mph - N/A   Clear
4:15 AM 41.5 °F 34.2 °F 32.0 °F 69% 29.90 in 10.0 mi West 13.8 mph 17.3 mph N/A   Clear
4:35 AM 42.1 °F 34.5 °F 31.8 °F 67% 29.91 in 10.0 mi West 15.0 mph 19.6 mph N/A   Clear
4:55 AM 42.4 °F 34.4 °F 31.8 °F 66% 29.91 in 10.0 mi WNW 17.3 mph 23.0 mph N/A   Clear
5:15 AM 42.3 °F 34.8 °F 31.8 °F 67% 29.92 in 10.0 mi West 15.0 mph 26.5 mph N/A   Clear
5:55 AM 40.6 °F 33.8 °F 31.8 °F 71% 29.93 in 10.0 mi West 11.5 mph - N/A   Clear
6:15 AM 40.6 °F 33.4 °F 31.8 °F 71% 29.95 in 10.0 mi West 12.7 mph 20.7 mph N/A   Clear
6:35 AM 41.4 °F 33.6 °F 31.6 °F 68% 29.95 in 10.0 mi West 15.0 mph - N/A   Clear
6:55 AM 40.5 °F 32.1 °F 31.8 °F 71% 29.96 in 10.0 mi West 16.1 mph - N/A   Clear
7:15 AM 40.1 °F 32.4 °F 31.6 °F 72% 29.96 in 10.0 mi West 13.8 mph 19.6 mph N/A   Clear
7:35 AM 39.6 °F 31.7 °F 31.6 °F 73% 29.97 in 10.0 mi West 13.8 mph - N/A   Clear
7:55 AM 39.6 °F 32.1 °F 31.8 °F 74% 29.97 in 10.0 mi West 12.7 mph - N/A   Clear
8:15 AM 40.8 °F 32.9 °F 32.0 °F 71% 29.98 in 10.0 mi West 15.0 mph - N/A   Clear
8:35 AM 41.5 °F 33.5 °F 32.0 °F 69% 29.99 in 10.0 mi West 16.1 mph 20.7 mph N/A   Clear
8:55 AM 43.0 °F 35.1 °F 32.0 °F 65% 30.00 in 10.0 mi West 17.3 mph 21.9 mph N/A   Clear
9:15 AM 44.6 °F 36.4 °F 32.0 °F 61% 30.01 in 10.0 mi WNW 20.7 mph 27.6 mph N/A   Clear
9:35 AM 46.4 °F 39.0 °F 31.5 °F 56% 30.01 in 10.0 mi West 19.6 mph 31.1 mph N/A   Clear
9:55 AM 47.5 °F - 31.8 °F 55% 30.02 in 10.0 mi WNW 20.7 mph 27.6 mph N/A   Clear
10:15 AM 48.4 °F - 31.8 °F 53% 30.03 in 10.0 mi NW 19.6 mph 27.6 mph N/A   Clear
10:35 AM 49.3 °F - 31.5 °F 50% 30.02 in 10.0 mi WNW 23.0 mph 28.8 mph N/A   Clear
10:55 AM 50.0 °F - 31.1 °F 48% 30.03 in 10.0 mi NW 18.4 mph 27.6 mph N/A   Clear
11:15 AM 51.3 °F - 31.1 °F 46% 30.03 in 10.0 mi WNW 21.9 mph 27.6 mph N/A   Clear
11:35 AM 51.8 °F - 30.6 °F 44% 30.03 in 10.0 mi NW 17.3 mph 28.8 mph N/A   Clear
11:55 AM 53.1 °F - 29.3 °F 40% 30.03 in 10.0 mi NW 21.9 mph 27.6 mph N/A   Clear
12:15 PM 54.1 °F - 30.0 °F 40% 30.02 in 10.0 mi WNW 17.3 mph 28.8 mph N/A   Clear
12:35 PM 54.7 °F - 29.7 °F 38% 30.02 in 10.0 mi WNW 18.4 mph 27.6 mph N/A   Clear
12:55 PM 56.8 °F - 31.6 °F 38% 30.01 in 10.0 mi WNW 17.3 mph 25.3 mph N/A   Clear
1:15 PM 57.0 °F - 29.8 °F 36% 30.00 in 10.0 mi NW 20.7 mph - N/A   Scattered Clouds
1:35 PM 58.1 °F - 31.8 °F 37% 29.99 in 10.0 mi WNW 17.3 mph 24.2 mph N/A   Mostly Cloudy
1:55 PM 57.0 °F - 31.1 °F 37% 29.99 in 10.0 mi WNW 19.6 mph 26.5 mph N/A   Overcast
2:15 PM 57.2 °F - 32.0 °F 38% 29.97 in 10.0 mi WNW 19.6 mph 24.2 mph N/A   Scattered Clouds
2:35 PM 58.5 °F - 32.9 °F 38% 29.97 in 10.0 mi WNW 15.0 mph - N/A   Scattered Clouds
2:55 PM 59.5 °F - 33.3 °F 37% 29.96 in 10.0 mi NW 20.7 mph 27.6 mph N/A   Mostly Cloudy
3:15 PM 59.7 °F - 34.0 °F 38% 29.96 in 10.0 mi WNW 13.8 mph 24.2 mph N/A   Scattered Clouds
3:35 PM 60.1 °F - 33.3 °F 36% 29.96 in 10.0 mi NW 18.4 mph 24.2 mph N/A   Scattered Clouds
3:55 PM 60.1 °F - 33.8 °F 37% 29.95 in 10.0 mi WNW 13.8 mph 18.4 mph N/A   Clear
4:15 PM 58.3 °F - 32.4 °F 38% 29.95 in 10.0 mi NW 9.2 mph 13.8 mph N/A   Clear
4:35 PM 60.1 °F - 32.4 °F 35% 29.95 in 10.0 mi WNW 18.4 mph 24.2 mph N/A   Mostly Cloudy
4:55 PM 59.5 °F - 31.3 °F 34% 29.93 in 10.0 mi WNW 12.7 mph 21.9 mph N/A   Mostly Cloudy
5:15 PM 59.0 °F - 31.6 °F 36% 29.93 in 10.0 mi WNW 13.8 mph - N/A   Scattered Clouds
5:35 PM 59.0 °F - 32.5 °F 37% 29.93 in 10.0 mi WNW 8.1 mph - N/A   Clear
5:55 PM 57.9 °F - 32.9 °F 39% 29.93 in 10.0 mi West 5.8 mph - N/A   Clear
6:15 PM 56.1 °F - 32.5 °F 41% 29.92 in 10.0 mi West 3.5 mph - N/A   Clear
6:35 PM 54.3 °F - 32.0 °F 43% 29.91 in 10.0 mi West 3.5 mph - N/A   Clear
6:55 PM 51.4 °F - 32.0 °F 47% 29.91 in 10.0 mi Calm Calm - N/A   Clear
7:15 PM 46.9 °F - 32.7 °F 58% 29.91 in 10.0 mi SSW 4.6 mph - N/A   Clear
7:35 PM 46.9 °F - 34.2 °F 61% 29.91 in 10.0 mi South 4.6 mph - N/A   Clear
7:55 PM 45.3 °F 42.3 °F 33.8 °F 64% 29.91 in 10.0 mi SSW 5.8 mph - N/A   Clear
8:15 PM 44.6 °F 42.2 °F 33.4 °F 65% 29.91 in 10.0 mi South 4.6 mph - N/A   Clear
8:35 PM 44.1 °F - 32.0 °F 63% 29.91 in 10.0 mi Calm Calm - N/A   Clear
8:55 PM 44.1 °F 41.5 °F 32.0 °F 63% 29.91 in 10.0 mi South 4.6 mph - N/A   Clear
9:15 PM 44.6 °F - 32.0 °F 61% 29.91 in 10.0 mi Calm Calm - N/A   Clear
9:35 PM 43.0 °F - 32.0 °F 65% 29.90 in 10.0 mi Calm Calm - N/A   Clear
9:55 PM 41.7 °F - 33.1 °F 71% 29.90 in 10.0 mi Calm Calm - N/A   Clear
10:15 PM 41.0 °F - 33.1 °F 73% 29.90 in 10.0 mi Calm Calm - N/A   Clear
10:35 PM 40.8 °F - 33.3 °F 74% 29.90 in 10.0 mi Calm Calm - N/A   Clear
10:55 PM 41.9 °F 40.0 °F 33.1 °F 71% 29.90 in 10.0 mi South 3.5 mph - N/A   Clear
11:15 PM 44.2 °F - 32.9 °F 64% 29.90 in 10.0 mi Calm Calm - N/A   Clear
11:35 PM 43.7 °F - 35.2 °F 72% 29.89 in 10.0 mi Calm Calm - N/A   Scattered Clouds
11:55 PM 44.8 °F - 35.8 °F 71% 29.89 in 10.0 mi Calm Calm - N/A   Mostly Cloudy